Time,TemperatureF,DewpointF,PressureIn,WindDirection,WindDirectionDegrees,WindSpeedMPH,WindSpeedGustMPH,Humidity,HourlyPrecipIn,Conditions,Clouds,dailyrainin,SoftwareType,DateUTC
2013-06-14 00:01:00,63.0,58.0,29.89,NNW,331,6.0,-999.0,84,-99.99,,,-99.99,,2013-06-14 04:01:00,
2013-06-14 00:12:00,63.0,58.0,29.89,NNW,331,6.0,-999.0,84,-99.99,,,-99.99,,2013-06-14 04:12:00,
2013-06-14 00:22:00,63.0,58.0,29.90,NNW,342,6.0,-999.0,85,-99.99,,,-99.99,,2013-06-14 04:22:00,
2013-06-14 00:33:00,62.0,57.0,29.90,NW,320,4.0,-999.0,85,-99.99,,,-99.99,,2013-06-14 04:33:00,
2013-06-14 00:43:00,62.0,58.0,29.91,NW,323,4.0,-999.0,86,-99.99,,,-99.99,,2013-06-14 04:43:00,
2013-06-14 00:53:00,62.0,58.0,29.91,NW,323,4.0,-999.0,86,-99.99,,,-99.99,,2013-06-14 04:53:00,
2013-06-14 01:02:00,62.0,57.0,29.91,NNW,330,5.0,-999.0,85,-99.99,,,-99.99,,2013-06-14 05:02:00,
2013-06-14 01:11:00,62.0,57.0,29.91,NNW,343,6.0,-999.0,83,-99.99,,,-99.99,,2013-06-14 05:11:00,
2013-06-14 01:22:00,62.0,57.0,29.91,NNW,343,6.0,-999.0,83,-99.99,,,-99.99,,2013-06-14 05:22:00,
2013-06-14 01:34:00,62.0,57.0,29.92,NW,310,5.0,-999.0,84,-99.99,,,-99.99,,2013-06-14 05:34:00,
2013-06-14 01:43:00,61.0,57.0,29.92,NW,310,5.0,-999.0,87,-99.99,,,-99.99,,2013-06-14 05:43:00,
2013-06-14 01:52:00,61.0,57.0,29.92,NW,310,5.0,-999.0,87,-99.99,,,-99.99,,2013-06-14 05:52:00,
2013-06-14 02:02:00,60.0,56.0,29.92,NNW,341,5.0,-999.0,87,-99.99,,,-99.99,,2013-06-14 06:02:00,
2013-06-14 02:12:00,60.0,56.0,29.92,NNW,341,4.0,-999.0,88,-99.99,,,-99.99,,2013-06-14 06:12:00,
2013-06-14 02:22:00,60.0,56.0,29.92,NNW,341,4.0,-999.0,88,-99.99,,,-99.99,,2013-06-14 06:22:00,
2013-06-14 02:33:00,59.0,55.0,29.93,NNW,340,5.0,-999.0,88,-99.99,,,-99.99,,2013-06-14 06:33:00,
2013-06-14 02:43:00,60.0,56.0,29.93,NNW,344,7.0,-999.0,86,-99.99,,,-99.99,,2013-06-14 06:43:00,
2013-06-14 02:52:00,61.0,55.0,29.93,North,350,9.0,-999.0,81,-99.99,,,-99.99,,2013-06-14 06:52:00,
2013-06-14 03:02:00,61.0,55.0,29.93,North,350,9.0,-999.0,81,-99.99,,,-99.99,,2013-06-14 07:02:00,
2013-06-14 03:12:00,60.0,53.0,29.93,North,9,9.0,-999.0,79,-99.99,,,-99.99,,2013-06-14 07:12:00,
2013-06-14 03:22:00,60.0,53.0,29.93,North,9,9.0,-999.0,79,-99.99,,,-99.99,,2013-06-14 07:22:00,
2013-06-14 03:33:00,60.0,54.0,29.94,North,355,9.0,-999.0,80,-99.99,,,-99.99,,2013-06-14 07:33:00,
2013-06-14 03:43:00,59.0,53.0,29.93,North,350,8.0,-999.0,81,-99.99,,,-99.99,,2013-06-14 07:43:00,
2013-06-14 03:53:00,59.0,53.0,29.93,North,350,8.0,-999.0,81,-99.99,,,-99.99,,2013-06-14 07:53:00,
2013-06-14 04:02:00,59.0,53.0,29.93,NNW,346,9.0,-999.0,81,-99.99,,,-99.99,,2013-06-14 08:02:00,
2013-06-14 04:12:00,58.0,53.0,29.93,NNW,344,8.0,-999.0,82,-99.99,,,-99.99,,2013-06-14 08:12:00,
2013-06-14 04:23:00,58.0,53.0,29.93,NNW,344,8.0,-999.0,82,-99.99,,,-99.99,,2013-06-14 08:23:00,
2013-06-14 04:33:00,58.0,53.0,29.94,NNW,334,8.0,-999.0,82,-99.99,,,-99.99,,2013-06-14 08:33:00,
2013-06-14 04:43:00,57.0,52.0,29.94,NNW,338,6.0,-999.0,84,-99.99,,,-99.99,,2013-06-14 08:43:00,
2013-06-14 04:53:00,57.0,52.0,29.94,NNW,338,6.0,-999.0,84,-99.99,,,-99.99,,2013-06-14 08:53:00,
2013-06-14 05:02:00,56.0,52.0,29.94,NNW,331,5.0,-999.0,86,-99.99,,,-99.99,,2013-06-14 09:02:00,
2013-06-14 05:12:00,56.0,52.0,29.95,NW,314,5.0,-999.0,87,-99.99,,,-99.99,,2013-06-14 09:12:00,
2013-06-14 05:22:00,56.0,52.0,29.95,NW,314,5.0,-999.0,87,-99.99,,,-99.99,,2013-06-14 09:22:00,
2013-06-14 05:33:00,56.0,52.0,29.96,NNW,332,6.0,-999.0,87,-99.99,,,-99.99,,2013-06-14 09:33:00,
2013-06-14 05:43:00,55.0,51.0,29.96,NNW,336,6.0,-999.0,86,-99.99,,,-99.99,,2013-06-14 09:43:00,
2013-06-14 05:53:00,55.0,51.0,29.96,NNW,336,6.0,-999.0,86,-99.99,,,-99.99,,2013-06-14 09:53:00,
2013-06-14 06:01:00,55.0,51.0,29.96,NNW,344,6.0,-999.0,86,-99.99,,,-99.99,,2013-06-14 10:01:00,
2013-06-14 06:11:00,55.0,51.0,29.96,North,351,6.0,-999.0,85,-99.99,,,-99.99,,2013-06-14 10:11:00,
2013-06-14 06:22:00,55.0,51.0,29.96,North,351,6.0,-999.0,85,-99.99,,,-99.99,,2013-06-14 10:22:00,
2013-06-14 06:34:00,55.0,50.0,29.97,NNW,343,8.0,-999.0,83,-99.99,,,-99.99,,2013-06-14 10:34:00,
2013-06-14 06:43:00,56.0,51.0,29.97,North,355,9.0,-999.0,82,-99.99,,,-99.99,,2013-06-14 10:43:00,
2013-06-14 06:52:00,56.0,51.0,29.97,North,355,9.0,-999.0,82,-99.99,,,-99.99,,2013-06-14 10:52:00,
2013-06-14 07:02:00,56.0,50.0,29.98,North,355,9.0,-999.0,80,-99.99,,,-99.99,,2013-06-14 11:02:00,
2013-06-14 07:11:00,56.0,50.0,29.98,North,355,9.0,-999.0,80,-99.99,,,-99.99,,2013-06-14 11:11:00,
2013-06-14 07:23:00,56.0,50.0,29.98,NNW,342,9.0,-999.0,79,-99.99,,,-99.99,,2013-06-14 11:23:00,
2013-06-14 07:32:00,57.0,50.0,29.99,North,349,10.0,-999.0,77,-99.99,,,-99.99,,2013-06-14 11:32:00,
2013-06-14 07:43:00,57.0,50.0,30.00,North,355,9.0,-999.0,76,-99.99,,,-99.99,,2013-06-14 11:43:00,
2013-06-14 07:52:00,57.0,50.0,30.00,North,355,9.0,-999.0,76,-99.99,,,-99.99,,2013-06-14 11:52:00,
2013-06-14 08:02:00,58.0,50.0,29.99,North,355,9.0,-999.0,75,-99.99,,,-99.99,,2013-06-14 12:02:00,
2013-06-14 08:12:00,58.0,50.0,29.99,North,355,9.0,-999.0,75,-99.99,,,-99.99,,2013-06-14 12:12:00,
2013-06-14 08:22:00,59.0,50.0,29.99,North,9,12.0,-999.0,72,-99.99,,,-99.99,,2013-06-14 12:22:00,
2013-06-14 08:33:00,60.0,50.0,30.00,NE,44,12.0,-999.0,70,-99.99,,,-99.99,,2013-06-14 12:33:00,
2013-06-14 08:43:00,60.0,50.0,30.01,NNE,14,12.0,-999.0,70,-99.99,,,-99.99,,2013-06-14 12:43:00,
2013-06-14 08:52:00,60.0,50.0,30.01,NNE,14,12.0,-999.0,70,-99.99,,,-99.99,,2013-06-14 12:52:00,
2013-06-14 09:02:00,60.0,50.0,30.01,NNE,14,12.0,-999.0,70,-99.99,,,-99.99,,2013-06-14 13:02:00,
2013-06-14 09:11:00,60.0,50.0,30.02,North,5,12.0,-999.0,69,-99.99,,,-99.99,,2013-06-14 13:11:00,
2013-06-14 09:22:00,61.0,50.0,30.04,NE,34,10.0,-999.0,67,-99.99,,,-99.99,,2013-06-14 13:22:00,
2013-06-14 09:33:00,61.0,50.0,30.04,NE,34,10.0,-999.0,67,-99.99,,,-99.99,,2013-06-14 13:33:00,
2013-06-14 09:43:00,61.0,50.0,30.04,ENE,67,8.0,-999.0,66,-99.99,,,-99.99,,2013-06-14 13:43:00,
2013-06-14 09:53:00,61.0,50.0,30.04,ENE,67,8.0,-999.0,66,-99.99,,,-99.99,,2013-06-14 13:53:00,
2013-06-14 10:02:00,61.0,50.0,30.05,ENE,57,7.0,-999.0,66,-99.99,,,-99.99,,2013-06-14 14:02:00,
2013-06-14 10:11:00,61.0,50.0,30.04,NNE,22,6.0,-999.0,67,-99.99,,,-99.99,,2013-06-14 14:11:00,
2013-06-14 10:22:00,61.0,50.0,30.04,NNE,22,6.0,-999.0,67,-99.99,,,-99.99,,2013-06-14 14:22:00,
2013-06-14 10:34:00,61.0,49.0,30.04,NE,56,7.0,-999.0,64,-99.99,,,-99.99,,2013-06-14 14:34:00,
2013-06-14 10:43:00,62.0,49.0,30.04,NE,34,8.0,-999.0,63,-99.99,,,-99.99,,2013-06-14 14:43:00,
2013-06-14 10:52:00,62.0,49.0,30.04,NE,34,8.0,-999.0,63,-99.99,,,-99.99,,2013-06-14 14:52:00,
2013-06-14 11:02:00,62.0,49.0,30.05,ENE,61,5.0,-999.0,63,-99.99,,,-99.99,,2013-06-14 15:02:00,
2013-06-14 11:11:00,62.0,49.0,30.05,ENE,61,5.0,-999.0,63,-99.99,,,-99.99,,2013-06-14 15:11:00,
2013-06-14 11:23:00,63.0,49.0,30.06,ENE,73,3.0,-999.0,61,-99.99,,,-99.99,,2013-06-14 15:23:00,
2013-06-14 11:33:00,63.0,49.0,30.06,ENE,73,3.0,-999.0,61,-99.99,,,-99.99,,2013-06-14 15:33:00,
2013-06-14 11:44:00,64.0,51.0,30.05,East,91,2.0,-999.0,62,-99.99,,,-99.99,,2013-06-14 15:44:00,
2013-06-14 11:53:00,63.0,50.0,30.06,East,86,4.0,-999.0,62,-99.99,,,-99.99,,2013-06-14 15:53:00,
2013-06-14 12:01:00,63.0,50.0,30.06,East,86,4.0,-999.0,62,-99.99,,,-99.99,,2013-06-14 16:01:00,
2013-06-14 12:11:00,63.0,50.0,30.06,ENE,69,5.0,-999.0,62,-99.99,,,-99.99,,2013-06-14 16:11:00,
2013-06-14 12:23:00,64.0,52.0,30.06,ENE,71,2.0,-999.0,64,-99.99,,,-99.99,,2013-06-14 16:23:00,
2013-06-14 12:33:00,64.0,52.0,30.06,ENE,71,2.0,-999.0,64,-99.99,,,-99.99,,2013-06-14 16:33:00,
2013-06-14 12:43:00,63.0,52.0,30.05,ENE,72,4.0,-999.0,67,-99.99,,,-99.99,,2013-06-14 16:43:00,
2013-06-14 12:53:00,63.0,52.0,30.05,ENE,72,4.0,-999.0,67,-99.99,,,-99.99,,2013-06-14 16:53:00,
2013-06-14 13:02:00,64.0,53.0,30.05,NE,43,3.0,-999.0,67,-99.99,,,-99.99,,2013-06-14 17:02:00,
2013-06-14 13:12:00,64.0,53.0,30.05,NE,43,3.0,-999.0,67,-99.99,,,-99.99,,2013-06-14 17:12:00,
2013-06-14 13:22:00,63.0,51.0,30.05,East,80,5.0,-999.0,65,-99.99,,,-99.99,,2013-06-14 17:22:00,
2013-06-14 13:34:00,63.0,51.0,30.05,East,80,5.0,-999.0,65,-99.99,,,-99.99,,2013-06-14 17:34:00,
2013-06-14 13:43:00,64.0,52.0,30.04,ENE,60,5.0,-999.0,65,-99.99,,,-99.99,,2013-06-14 17:43:00,
2013-06-14 13:53:00,63.0,51.0,30.04,NE,51,7.0,-999.0,66,-99.99,,,-99.99,,2013-06-14 17:53:00,
2013-06-14 14:02:00,63.0,51.0,30.04,NE,51,7.0,-999.0,66,-99.99,,,-99.99,,2013-06-14 18:02:00,
2013-06-14 14:11:00,64.0,54.0,30.04,ENE,77,4.0,-999.0,70,-99.99,,,-99.99,,2013-06-14 18:11:00,
2013-06-14 14:22:00,64.0,52.0,30.04,ENE,77,5.0,-999.0,66,-99.99,,,-99.99,,2013-06-14 18:22:00,
2013-06-14 14:32:00,63.0,52.0,30.03,East,92,6.0,-999.0,67,-99.99,,,-99.99,,2013-06-14 18:32:00,
2013-06-14 14:43:00,63.0,52.0,30.03,East,92,6.0,-999.0,67,-99.99,,,-99.99,,2013-06-14 18:43:00,
2013-06-14 14:52:00,63.0,52.0,30.03,ENE,63,7.0,-999.0,68,-99.99,,,-99.99,,2013-06-14 18:52:00,
2013-06-14 15:01:00,63.0,52.0,30.03,ENE,63,7.0,-999.0,68,-99.99,,,-99.99,,2013-06-14 19:01:00,
2013-06-14 15:11:00,63.0,52.0,30.03,East,81,6.0,-999.0,68,-99.99,,,-99.99,,2013-06-14 19:11:00,
2013-06-14 15:22:00,62.0,51.0,30.02,NE,45,8.0,-999.0,68,-99.99,,,-99.99,,2013-06-14 19:22:00,
2013-06-14 15:32:00,62.0,51.0,30.02,NE,45,8.0,-999.0,68,-99.99,,,-99.99,,2013-06-14 19:32:00,
2013-06-14 15:43:00,62.0,52.0,30.02,NNE,24,8.0,-999.0,70,-99.99,,,-99.99,,2013-06-14 19:43:00,
2013-06-14 15:53:00,62.0,52.0,30.01,NE,55,7.0,-999.0,69,-99.99,,,-99.99,,2013-06-14 19:53:00,
2013-06-14 16:02:00,62.0,52.0,30.01,NE,55,7.0,-999.0,69,-99.99,,,-99.99,,2013-06-14 20:02:00,
2013-06-14 16:11:00,62.0,52.0,30.01,NNE,31,8.0,-999.0,70,-99.99,,,-99.99,,2013-06-14 20:11:00,
2013-06-14 16:22:00,63.0,53.0,30.01,NE,52,6.0,-999.0,70,-99.99,,,-99.99,,2013-06-14 20:22:00,
2013-06-14 16:33:00,63.0,53.0,30.01,NE,52,6.0,-999.0,70,-99.99,,,-99.99,,2013-06-14 20:33:00,
2013-06-14 16:43:00,63.0,52.0,30.01,ENE,76,5.0,-999.0,68,-99.99,,,-99.99,,2013-06-14 20:43:00,
2013-06-14 16:53:00,63.0,53.0,30.01,East,92,5.0,-999.0,69,-99.99,,,-99.99,,2013-06-14 20:53:00,
2013-06-14 17:02:00,63.0,53.0,30.01,East,92,5.0,-999.0,69,-99.99,,,-99.99,,2013-06-14 21:02:00,
2013-06-14 17:12:00,63.0,51.0,30.01,East,80,5.0,-999.0,66,-99.99,,,-99.99,,2013-06-14 21:12:00,
2013-06-14 17:22:00,64.0,53.0,30.01,ENE,74,5.0,-999.0,68,-99.99,,,-99.99,,2013-06-14 21:22:00,
2013-06-14 17:34:00,64.0,53.0,30.01,ENE,74,5.0,-999.0,68,-99.99,,,-99.99,,2013-06-14 21:34:00,
2013-06-14 17:42:00,64.0,52.0,30.02,ENE,58,4.0,-999.0,65,-99.99,,,-99.99,,2013-06-14 21:42:00,
2013-06-14 17:52:00,64.0,52.0,30.01,ENE,65,5.0,-999.0,65,-99.99,,,-99.99,,2013-06-14 21:52:00,
2013-06-14 18:02:00,63.0,52.0,30.01,NNE,32,7.0,-999.0,68,-99.99,,,-99.99,,2013-06-14 22:02:00,
2013-06-14 18:12:00,63.0,52.0,30.01,NNE,32,7.0,-999.0,68,-99.99,,,-99.99,,2013-06-14 22:12:00,
2013-06-14 18:22:00,63.0,53.0,30.01,ENE,68,6.0,-999.0,70,-99.99,,,-99.99,,2013-06-14 22:22:00,
2013-06-14 18:33:00,63.0,53.0,30.01,ENE,68,6.0,-999.0,70,-99.99,,,-99.99,,2013-06-14 22:33:00,
2013-06-14 18:43:00,63.0,53.0,30.00,NNE,28,8.0,-999.0,69,-99.99,,,-99.99,,2013-06-14 22:43:00,
2013-06-14 18:53:00,64.0,54.0,30.00,ENE,63,5.0,-999.0,69,-99.99,,,-99.99,,2013-06-14 22:53:00,
2013-06-14 19:02:00,64.0,53.0,30.00,ENE,75,6.0,-999.0,67,-99.99,,,-99.99,,2013-06-14 23:02:00,
2013-06-14 19:11:00,64.0,53.0,30.00,ENE,75,6.0,-999.0,67,-99.99,,,-99.99,,2013-06-14 23:11:00,
2013-06-14 19:22:00,64.0,53.0,29.99,ENE,59,6.0,-999.0,67,-99.99,,,-99.99,,2013-06-14 23:22:00,
2013-06-14 19:33:00,64.0,53.0,29.99,ENE,59,6.0,-999.0,67,-99.99,,,-99.99,,2013-06-14 23:33:00,
2013-06-14 19:43:00,64.0,51.0,29.99,ENE,68,7.0,-999.0,62,-99.99,,,-99.99,,2013-06-14 23:43:00,
2013-06-14 19:52:00,64.0,49.0,29.99,ENE,61,5.0,-999.0,59,-99.99,,,-99.99,,2013-06-14 23:52:00,
2013-06-14 20:01:00,64.0,50.0,29.98,ENE,71,5.0,-999.0,60,-99.99,,,-99.99,,2013-06-15 00:01:00,
2013-06-14 20:11:00,64.0,50.0,29.98,ENE,71,5.0,-999.0,60,-99.99,,,-99.99,,2013-06-15 00:11:00,
2013-06-14 20:23:00,64.0,50.0,29.98,ENE,77,5.0,-999.0,60,-99.99,,,-99.99,,2013-06-15 00:23:00,
2013-06-14 20:34:00,64.0,52.0,29.98,East,84,4.0,-999.0,66,-99.99,,,-99.99,,2013-06-15 00:34:00,
2013-06-14 20:43:00,64.0,52.0,29.98,East,84,4.0,-999.0,66,-99.99,,,-99.99,,2013-06-15 00:43:00,
2013-06-14 20:53:00,64.0,54.0,29.98,ENE,58,4.0,-999.0,70,-99.99,,,-99.99,,2013-06-15 00:53:00,
2013-06-14 21:01:00,64.0,54.0,29.98,NE,42,2.0,-999.0,69,-99.99,,,-99.99,,2013-06-15 01:01:00,
2013-06-14 21:11:00,64.0,54.0,29.98,NE,42,2.0,-999.0,69,-99.99,,,-99.99,,2013-06-15 01:11:00,
2013-06-14 21:22:00,63.0,53.0,29.98,ENE,57,2.0,-999.0,69,-99.99,,,-99.99,,2013-06-15 01:22:00,
2013-06-14 21:33:00,63.0,53.0,29.98,ENE,57,2.0,-999.0,69,-99.99,,,-99.99,,2013-06-15 01:33:00,
2013-06-14 21:43:00,63.0,52.0,29.98,ENE,76,1.0,-999.0,67,-99.99,,,-99.99,,2013-06-15 01:43:00,
2013-06-14 21:54:00,63.0,52.0,29.98,ENE,76,1.0,-999.0,67,-99.99,,,-99.99,,2013-06-15 01:54:00,
2013-06-14 22:02:00,63.0,51.0,29.98,East,85,1.0,-999.0,65,-99.99,,,-99.99,,2013-06-15 02:02:00,
2013-06-14 22:11:00,63.0,52.0,29.98,ENE,67,1.0,-999.0,68,-99.99,,,-99.99,,2013-06-15 02:11:00,
2013-06-14 22:23:00,63.0,52.0,29.98,ENE,67,1.0,-999.0,68,-99.99,,,-99.99,,2013-06-15 02:23:00,
2013-06-14 22:34:00,63.0,53.0,29.99,East,80,2.0,-999.0,69,-99.99,,,-99.99,,2013-06-15 02:34:00,
2013-06-14 22:43:00,63.0,53.0,29.99,ENE,65,3.0,-999.0,71,-99.99,,,-99.99,,2013-06-15 02:43:00,
2013-06-14 22:53:00,63.0,55.0,29.99,ENE,57,4.0,-999.0,74,-99.99,,,-99.99,,2013-06-15 02:53:00,
2013-06-14 23:01:00,63.0,55.0,30.00,NE,46,2.0,-999.0,75,-99.99,,,-99.99,,2013-06-15 03:01:00,
2013-06-14 23:11:00,63.0,55.0,30.00,NE,46,2.0,-999.0,75,-99.99,,,-99.99,,2013-06-15 03:11:00,
2013-06-14 23:24:00,63.0,55.0,30.00,ENE,61,3.0,-999.0,75,-99.99,,,-99.99,,2013-06-15 03:24:00,
2013-06-14 23:32:00,63.0,55.0,30.00,ENE,61,3.0,-999.0,75,-99.99,,,-99.99,,2013-06-15 03:32:00,
2013-06-14 23:44:00,63.0,50.0,29.99,NE,51,2.0,-999.0,63,-99.99,,,-99.99,,2013-06-15 03:44:00,
2013-06-14 23:53:00,64.0,50.0,30.00,NE,55,2.0,-999.0,61,-99.99,,,-99.99,,2013-06-15 03:53:00,